Terminal Aerodrome Forecast
Issued by NWS

Home | Current Version | Previous Version | Text Only | Print | Product List | Glossary Off
Versions: 1 2 3 4 5 6 7 8 9 10 11 12 13 14 15 16 17 18 19 20 21 22 23 24 25 26 27 28 29 30 31 32 33 34 35 36 37 38 39 40 41 42 43 44 45 46 47 48 49 50

000
FTUS43 KLOT 221700
TAFGYY
TAF
KGYY 221731Z 2218/2318 24007KT P6SM BKN018 BKN035
     FM222000 05007KT P6SM SCT020 BKN100
     FM230000 08004KT P6SM SCT045 BKN250
     FM230700 07003KT 3SM BR BKN005
     FM231500 10006KT P6SM SCT009 BKN200=

USA.gov is the U.S. government's official web portal to all federal, state and local government web resources and services.